Regional Weather Roundup
Issued by NWS

Home | Current Version | Previous Version | Text Only | Print | Product List | Glossary Off
Versions: 1 2 3 4 5 6 7 8 9 10 11 12 13 14 15 16 17 18 19 20 21 22 23 24 25 26 27 28 29 30 31 32 33 34 35 36 37 38 39 40 41 42 43 44 45 46 47 48 49 50

000
ASUS45 KBOI 240810
RWRID

IDAHO REGIONAL WEATHER ROUNDUP
NATIONAL WEATHER SERVICE BOISE ID
100 AM MST FRI FEB 24 2017

NOTE: "FAIR" INDICATES FEW OR NO CLOUDS BELOW 12000 FEET
WITH NO SIGNIFICANT WEATHER AND/OR OBSTRUCTIONS TO VISIBILITY

IDZ012-014-240900-
SOUTHWEST IDAHO


CITY           SKY/WX    TMP DP  RH WIND       PRES   REMARKS
BOISE          CLOUDY    29  24  82 NW21G26   29.99R WCI  16
CALDWELL       CLOUDY    30  21  69 W13       30.04S WCI  20
MOUNTAIN HOME  MOCLDY    29  24  82 W21G31    29.97R WCI  15
$$

IDZ016-017-240900-
SOUTHCENTRAL IDAHO


CITY           SKY/WX    TMP DP  RH WIND       PRES   REMARKS
BURLEY         FLURRIES  27  18  69 W21G30    29.90R WCI  13
JEROME           N/A    N/A N/A N/A MISG      29.90R
TWIN FALLS     CLOUDY    23  15  71 SW20      29.92R WCI   8
$$

IDZ019>023-240900-
SOUTHEAST IDAHO


CITY           SKY/WX    TMP DP  RH WIND       PRES   REMARKS
IDAHO FALLS    CLOUDY    22  21  96 S18G26    29.84R FOG     WCI   7
POCATELLO      LGT SNOW  23  21  92 SW21      29.88S FOG     WCI   8
REXBURG        LGT SNOW  22  20  92 S15       29.83R FOG     WCI   9
$$

IDZ006-010-011-018-031-032-240900-
CENTRAL IDAHO MOUNTAINS


CITY           SKY/WX    TMP DP  RH WIND       PRES   REMARKS
MCCALL         CLOUDY    20   9  62 N13       29.89R WCI   7
HAILEY         LGT SNOW  23  21  93 SE7       29.80S WCI  15
STANLEY          N/A     16  11  80 N3        29.78R
SALMON         CLOUDY    28  18  64 CALM      29.87R
CHALLIS        CLOUDY    22  18  85 NW9       29.81S WCI  12
$$

IDZ002-004-006-007-026-240900-
NORTHERN IDAHO


CITY           SKY/WX    TMP DP  RH WIND       PRES   REMARKS
LEWISTON       CLEAR     28  23  81 S3        30.12S
LOWELL           N/A     32  28  85 CALM      30.14R
COEUR D`ALENE  CLEAR     24  23  96 S8        30.07S WCI  15
MULLAN PASS    CLOUDY    14  13  95 N5        29.87S FOG     WCI   6
$$



USA.gov is the U.S. government's official web portal to all federal, state and local government web resources and services.